TimeEDT,TemperatureF,Dew PointF,Humidity,Sea Level PressureIn,VisibilityMPH,Wind Direction,Wind SpeedMPH,Gust SpeedMPH,PrecipitationIn,Events,Conditions,WindDirDegrees,DateUTC
12:15 AM,69.1,58.3,68,30.23,10.0,NNE,8.1,18.4,N/A,,Mostly Cloudy,30,2013-09-17 04:15:00
12:35 AM,68.4,57.4,68,30.24,10.0,NE,8.1,-,N/A,,Scattered Clouds,40,2013-09-17 04:35:00
12:55 AM,68.0,57.2,68,30.24,10.0,NNE,8.1,-,N/A,,Mostly Cloudy,30,2013-09-17 04:55:00
1:15 AM,67.6,57.2,69,30.24,10.0,NNE,8.1,-,N/A,,Mostly Cloudy,30,2013-09-17 05:15:00
1:35 AM,67.1,57.2,70,30.25,10.0,NNE,5.8,-,N/A,,Mostly Cloudy,30,2013-09-17 05:35:00
1:55 AM,66.2,57.4,73,30.24,10.0,NNE,4.6,-,N/A,,Scattered Clouds,30,2013-09-17 05:55:00
2:15 AM,65.7,57.6,75,30.24,10.0,Calm,Calm,-,N/A,,Mostly Cloudy,0,2013-09-17 06:15:00
2:35 AM,65.7,57.6,75,30.24,10.0,NE,3.5,-,N/A,,Overcast,40,2013-09-17 06:35:00
2:55 AM,65.3,57.4,76,30.25,10.0,Calm,Calm,-,N/A,,Mostly Cloudy,0,2013-09-17 06:55:00
3:15 AM,64.8,57.6,77,30.26,10.0,Calm,Calm,-,N/A,,Overcast,0,2013-09-17 07:15:00
3:35 AM,64.8,57.4,77,30.26,10.0,NE,3.5,-,N/A,,Overcast,40,2013-09-17 07:35:00
3:55 AM,64.8,56.8,75,30.26,10.0,NE,5.8,-,N/A,,Overcast,40,2013-09-17 07:55:00
4:15 AM,64.4,57.0,77,30.26,10.0,NNE,3.5,-,N/A,,Overcast,20,2013-09-17 08:15:00
4:35 AM,64.0,56.7,77,30.27,10.0,North,4.6,-,N/A,,Overcast,10,2013-09-17 08:35:00
4:55 AM,63.5,57.2,80,30.26,10.0,NNE,4.6,-,N/A,,Overcast,20,2013-09-17 08:55:00
5:15 AM,63.0,56.7,80,30.27,10.0,Calm,Calm,-,N/A,,Mostly Cloudy,0,2013-09-17 09:15:00
5:35 AM,62.2,57.2,84,30.28,10.0,Calm,Calm,-,N/A,,Mostly Cloudy,0,2013-09-17 09:35:00
5:55 AM,61.9,57.6,86,30.28,10.0,NNE,3.5,-,N/A,,Mostly Cloudy,20,2013-09-17 09:55:00
6:15 AM,61.9,56.8,84,30.29,10.0,NNE,3.5,-,N/A,,Overcast,20,2013-09-17 10:15:00
6:35 AM,61.9,56.5,82,30.29,10.0,NNE,3.5,-,N/A,,Overcast,20,2013-09-17 10:35:00
6:55 AM,61.7,56.3,82,30.29,10.0,NNE,3.5,-,N/A,,Overcast,20,2013-09-17 10:55:00
7:15 AM,61.7,55.9,81,30.30,10.0,Calm,Calm,-,N/A,,Overcast,0,2013-09-17 11:15:00
7:35 AM,61.7,56.1,82,30.31,10.0,NNE,3.5,-,N/A,,Overcast,20,2013-09-17 11:35:00
7:55 AM,61.7,55.9,81,30.32,10.0,Calm,Calm,-,N/A,,Mostly Cloudy,0,2013-09-17 11:55:00
8:15 AM,61.9,55.6,80,30.32,10.0,Calm,Calm,-,N/A,,Scattered Clouds,0,2013-09-17 12:15:00
8:35 AM,62.6,55.4,77,30.33,10.0,NE,3.5,-,N/A,,Scattered Clouds,40,2013-09-17 12:35:00
8:55 AM,63.9,55.4,74,30.33,10.0,NNE,4.6,-,N/A,,Mostly Cloudy,30,2013-09-17 12:55:00
9:15 AM,64.4,55.0,72,30.33,10.0,ENE,8.1,-,N/A,,Overcast,60,2013-09-17 13:15:00
9:35 AM,64.0,54.5,71,30.34,10.0,NNE,4.6,-,N/A,,Overcast,30,2013-09-17 13:35:00
9:55 AM,65.3,55.6,71,30.35,10.0,ENE,4.6,-,N/A,,Scattered Clouds,60,2013-09-17 13:55:00
10:15 AM,65.3,54.9,69,30.35,10.0,NE,6.9,-,N/A,,Clear,40,2013-09-17 14:15:00
10:35 AM,67.1,54.5,64,30.35,10.0,ENE,4.6,-,N/A,,Clear,60,2013-09-17 14:35:00
10:55 AM,68.4,53.4,59,30.35,10.0,NE,5.8,-,N/A,,Clear,50,2013-09-17 14:55:00
11:15 AM,69.1,52.5,55,30.35,10.0,NE,8.1,-,N/A,,Clear,40,2013-09-17 15:15:00
11:35 AM,69.3,51.6,53,30.36,10.0,NE,10.4,17.3,N/A,,Scattered Clouds,50,2013-09-17 15:35:00
11:55 AM,70.3,50.5,49,30.35,10.0,NNE,8.1,-,N/A,,Clear,30,2013-09-17 15:55:00
12:15 PM,70.7,50.5,49,30.35,10.0,NE,6.9,-,N/A,,Clear,40,2013-09-17 16:15:00
12:35 PM,71.6,50.5,47,30.34,10.0,ENE,6.9,-,N/A,,Clear,60,2013-09-17 16:35:00
12:55 PM,71.4,50.0,47,30.34,10.0,ENE,10.4,-,N/A,,Clear,60,2013-09-17 16:55:00
1:15 PM,72.9,50.0,44,30.33,10.0,NE,5.8,-,N/A,,Scattered Clouds,40,2013-09-17 17:15:00
1:35 PM,72.7,48.2,42,30.33,10.0,ENE,6.9,-,N/A,,Scattered Clouds,70,2013-09-17 17:35:00
1:55 PM,72.0,49.5,45,30.32,10.0,North,8.1,-,N/A,,Scattered Clouds,360,2013-09-17 17:55:00
2:15 PM,72.9,49.6,44,30.32,10.0,NE,4.6,-,N/A,,Scattered Clouds,40,2013-09-17 18:15:00
2:35 PM,73.4,49.6,43,30.30,10.0,ENE,5.8,-,N/A,,Scattered Clouds,60,2013-09-17 18:35:00
2:55 PM,74.1,48.6,40,30.29,10.0,NNE,6.9,-,N/A,,Clear,30,2013-09-17 18:55:00
3:15 PM,74.5,49.5,41,30.29,10.0,ENE,5.8,-,N/A,,Scattered Clouds,60,2013-09-17 19:15:00
3:35 PM,73.8,49.1,42,30.29,10.0,NE,6.9,-,N/A,,Scattered Clouds,50,2013-09-17 19:35:00
3:55 PM,74.3,48.7,40,30.29,10.0,NE,3.5,-,N/A,,Scattered Clouds,40,2013-09-17 19:55:00
4:15 PM,74.7,49.3,41,30.28,10.0,ENE,6.9,-,N/A,,Scattered Clouds,60,2013-09-17 20:15:00
4:35 PM,73.2,48.7,42,30.28,10.0,North,8.1,-,N/A,,Scattered Clouds,10,2013-09-17 20:35:00
4:55 PM,73.8,48.6,41,30.28,10.0,NE,5.8,-,N/A,,Scattered Clouds,40,2013-09-17 20:55:00
5:15 PM,73.4,49.3,42,30.27,10.0,North,9.2,-,N/A,,Scattered Clouds,10,2013-09-17 21:15:00
5:35 PM,72.1,49.5,45,30.28,10.0,NNE,4.6,-,N/A,,Scattered Clouds,30,2013-09-17 21:35:00
5:55 PM,73.0,49.8,44,30.28,10.0,NE,6.9,-,N/A,,Scattered Clouds,40,2013-09-17 21:55:00
6:15 PM,72.1,50.0,46,30.28,10.0,Calm,Calm,-,N/A,,Scattered Clouds,0,2013-09-17 22:15:00
6:35 PM,70.9,51.1,49,30.27,10.0,NE,3.5,-,N/A,,Clear,40,2013-09-17 22:35:00
6:55 PM,69.8,52.2,53,30.27,10.0,Calm,Calm,-,N/A,,Clear,0,2013-09-17 22:55:00
7:15 PM,68.0,53.2,59,30.27,10.0,Calm,Calm,-,N/A,,Clear,0,2013-09-17 23:15:00
7:35 PM,65.7,53.6,65,30.28,10.0,Calm,Calm,-,N/A,,Clear,0,2013-09-17 23:35:00
7:55 PM,63.9,54.7,72,30.28,10.0,Calm,Calm,-,N/A,,Clear,0,2013-09-17 23:55:00
8:15 PM,62.2,54.5,76,30.28,10.0,Calm,Calm,-,N/A,,Clear,0,2013-09-18 00:15:00
8:35 PM,61.3,54.5,78,30.28,10.0,Calm,Calm,-,N/A,,Clear,0,2013-09-18 00:35:00
8:55 PM,60.8,53.8,78,30.29,10.0,Calm,Calm,-,N/A,,Clear,0,2013-09-18 00:55:00
9:15 PM,61.3,53.1,74,30.30,10.0,Calm,Calm,-,N/A,,Clear,0,2013-09-18 01:15:00
9:35 PM,62.2,52.7,71,30.31,10.0,Calm,Calm,-,N/A,,Clear,0,2013-09-18 01:35:00
9:55 PM,62.4,52.0,69,30.31,10.0,Calm,Calm,-,N/A,,Clear,0,2013-09-18 01:55:00
10:15 PM,63.0,51.1,65,30.31,10.0,Calm,Calm,-,N/A,,Clear,0,2013-09-18 02:15:00
10:35 PM,62.8,51.1,66,30.32,10.0,Calm,Calm,-,N/A,,Clear,0,2013-09-18 02:35:00
10:55 PM,62.8,50.9,65,30.32,10.0,Calm,Calm,-,N/A,,Clear,0,2013-09-18 02:55:00
11:15 PM,62.2,50.9,66,30.32,10.0,ENE,3.5,-,N/A,,Clear,60,2013-09-18 03:15:00
11:35 PM,61.7,50.9,68,30.32,10.0,ENE,3.5,-,N/A,,Clear,60,2013-09-18 03:35:00
11:55 PM,61.0,50.9,69,30.32,10.0,ENE,4.6,-,N/A,,Clear,70,2013-09-18 03:55:00